Regional Weather Roundup
Issued by NWS

Home | Current Version | Previous Version | Graphics & Text | Print | Product List | Glossary On
Versions: 1 2 3 4 5 6 7 8 9 10 11 12 13 14 15 16 17 18 19 20 21 22 23 24 25 26 27 28 29 30 31 32 33 34 35 36 37 38 39 40 41 42 43 44 45 46 47 48 49 50
227
ASUS45 KCYS 241310
RWRWY

WYOMING REGIONAL WEATHER ROUNDUP
NATIONAL WEATHER SERVICE CHEYENNE WY
700 AM MDT SAT JUN 24 2017

NOTE:  "FAIR" INDICATES FEW OR NO CLOUDS BELOW 12,000 FEET
WITH NO SIGNIFICANT WEATHER AND/OR OBSTRUCTIONS TO VISIBILITY.

WYZ001-241400-
YELLOWSTONE NATIONAL PARK

CITY           SKY/WX    TMP DP  RH WIND       PRES   REMARKS
LK YELLOWSTONE   N/A     32  28  85 CALM      30.44S
W YELLOWSTONE  NOT AVBL

$$
WYZ002>013-054>058-071-098>099-241400-
NORTHERN WYOMING

CITY           SKY/WX    TMP DP  RH WIND       PRES   REMARKS
JACKSON        SUNNY     39  36  87 CALM      30.38S
CODY           FAIR      50  36  58 CALM      30.38R
GREYBULL       FAIR      49  35  58 SE5       30.31R
WORLAND        FAIR      52  33  48 CALM      30.32R
SHERIDAN       CLOUDY    51  42  71 S5        30.32R
BUFFALO        FAIR      50  36  58 NW7       30.35R
GILLETTE       CLOUDY    54  36  50 CALM      30.31R
NEWCASTLE      FAIR      46  30  53 N6        30.31F

$$
WYZ014>020-022>026-101>103-241400-
CENTRAL WYOMING

CITY           SKY/WX    TMP DP  RH WIND       PRES   REMARKS
BIG PINEY      FAIR      41  29  62 CALM      30.41R
PINEDALE       FAIR      39  34  81 CALM      30.41R
DUBOIS         FAIR      37  28  70 NW8       30.42R WCI  31
LANDER         FAIR      49  33  54 W5        30.36R
RIVERTON       FAIR      49  34  56 NW5       30.36R
CASPER         FAIR      45  34  65 W3        30.34R
DOUGLAS        PTSUNNY   49  40  71 NW3       30.33R

$$
WYZ021-027>030-104>119-241400-
SOUTHERN WYOMING

CITY           SKY/WX    TMP DP  RH WIND       PRES   REMARKS
EVANSTON       FAIR      48  31  51 E10       30.37R
KEMMERER         N/A     43  30  61 N12       30.40R
FORT BRIDGER   FAIR      45  31  58 CALM      30.40S
ROCK SPRINGS   FAIR      48  30  49 E6        30.38R
DIXON          FAIR      43  32  65 SE3       30.36R
RAWLINS        FAIR      48  27  44 E12       30.36R
SARATOGA       FAIR      45  32  61 CALM      30.36S
LARAMIE        CLOUDY    48  32  53 SE6       30.36S
CHEYENNE       CLOUDY    53  32  44 CALM      30.35R
TORRINGTON     CLOUDY    52  41  66 CALM      30.29S
PINE BLUFFS    CLOUDY    52  43  71 CALM      30.33S

$$




USA.gov is the U.S. government's official web portal to all federal, state and local government web resources and services.